EA1FBN Weather Reports


Display with metric or nautical units.
time (UTC)temp
F
wind
direction
speed
MPH
gust
MPH
rain 1hr
in
rain 24hr
in
rain mn
in
humidity
%
barometer
mb
20260510223444 48 323 0.0 2.0 0.00 0.12 0.00 75 1013.6
20260510222944 48 335 0.0 1.0 0.00 0.12 0.00 76 1013.6
20260510222444 48 338 0.0 1.0 0.00 0.12 0.00 76 1013.6
20260510221944 48 347 0.0 1.0 0.00 0.12 0.00 76 1013.6
20260510221444 49 347 1.0 3.0 0.00 0.12 0.00 76 1013.5
20260510220944 48 334 1.0 3.0 0.00 0.12 0.00 76 1013.5
20260510220444 48 328 1.0 2.0 0.00 0.12 0.00 75 1013.4
20260510215944 48 340 2.0 3.0 0.00 0.12 0.13 76 1013.4
20260510215444 48 342 2.0 4.0 0.00 0.12 0.13 76 1013.4
20260510214944 49 341 2.0 4.0 0.00 0.12 0.13 76 1013.4
20260510214444 49 327 1.0 4.0 0.00 0.12 0.13 75 1013.4
20260510213944 49 344 1.0 3.0 0.00 0.12 0.13 75 1013.4
20260510213444 49 331 1.0 3.0 0.00 0.12 0.13 75 1013.4
20260510212944 49 324 1.0 3.0 0.00 0.12 0.13 75 1013.4
20260510212444 49 341 2.0 4.0 0.00 0.12 0.13 75 1013.3
20260510211944 49 333 3.0 4.0 0.00 0.23 0.13 75 1013.4
20260510211444 49 339 4.0 6.0 0.00 0.23 0.13 75 1013.3
20260510210944 49 335 4.0 7.0 0.00 0.23 0.13 75 1013.3
20260510210444 49 327 3.0 6.0 0.00 0.23 0.13 75 1013.3
20260510205944 49 342 2.0 4.0 0.00 0.23 0.13 75 1013.3
20260510205444 49 17 2.0 2.0 0.00 0.23 0.13 75 1013.1
20260510204944 49 352 2.0 3.0 0.00 0.23 0.13 75 1013.1
20260510204444 49 340 1.0 3.0 0.00 0.23 0.13 75 1013.0
20260510203944 50 354 2.0 3.0 0.00 0.23 0.13 75 1013.0
20260510203444 50 345 2.0 4.0 0.00 0.23 0.13 75 1012.9
20260510202944 50 348 1.0 4.0 0.00 0.23 0.13 75 1012.8
20260510202444 50 350 1.0 2.0 0.00 0.23 0.13 75 1012.8
20260510201944 50 335 1.0 1.0 0.00 0.25 0.13 75 1012.7
20260510201444 51 335 1.0 2.0 0.00 0.25 0.13 75 1012.6
20260510200944 51 339 1.0 3.0 0.00 0.25 0.13 74 1012.6
20260510200444 51 79 0.0 1.0 0.00 0.25 0.13 73 1012.5
20260510195944 51 103 0.0 0.0 0.00 0.25 0.13 73 1012.5
20260510195444 51 103 0.0 0.0 0.00 0.25 0.13 73 1012.5
20260510194944 51 103 0.0 0.0 0.00 0.25 0.13 73 1012.4
20260510194444 51 103 0.0 0.0 0.00 0.25 0.13 72 1012.3
20260510193944 52 103 0.0 0.0 0.00 0.25 0.13 72 1012.3
20260510193444 52 103 0.0 0.0 0.00 0.25 0.13 72 1012.3
20260510192944 53 103 0.0 0.0 0.00 0.25 0.13 72 1012.3
20260510192444 53 105 0.0 0.0 0.00 0.25 0.13 71 1012.2
20260510191944 53 105 0.0 0.0 0.00 0.25 0.13 71 1012.1
20260510191444 53 105 0.0 0.0 0.00 0.25 0.13 70 1012.1
20260510190944 54 105 0.0 0.0 0.00 0.25 0.13 70 1012.1
20260510190444 54 105 0.0 1.0 0.00 0.25 0.13 70 1012.1
20260510185944 55 105 1.0 2.0 0.00 0.25 0.13 69 1012.1
20260510185444 55 115 2.0 4.0 0.00 0.25 0.13 68 1012.0
20260510184944 55 106 2.0 4.0 0.00 0.25 0.13 67 1011.9
20260510184444 55 116 2.0 4.0 0.00 0.25 0.13 67 1011.9
20260510183945 56 143 2.0 3.0 0.00 0.25 0.13 67 1011.9
20260510183445 55 134 3.0 5.0 0.00 0.25 0.13 67 1011.9
20260510182945 55 120 4.0 6.0 0.00 0.25 0.13 67 1011.9
20260510182445 55 116 4.0 7.0 0.00 0.25 0.13 67 1011.8
20260510181945 55 114 5.0 7.0 0.00 0.25 0.13 67 1011.8
20260510181445 55 101 5.0 8.0 0.00 0.25 0.13 67 1011.7
20260510180945 55 120 4.0 7.0 0.00 0.25 0.13 67 1011.7
20260510180445 55 116 5.0 7.0 0.00 0.25 0.13 67 1011.7
20260510175945 55 105 6.0 10.0 0.00 0.25 0.13 67 1011.6
20260510175445 55 118 6.0 9.0 0.00 0.25 0.13 66 1011.6
20260510174945 55 117 8.0 12.0 0.00 0.25 0.13 66 1011.6
20260510174445 55 131 9.0 13.0 0.00 0.25 0.13 65 1011.6
20260510173945 55 117 8.0 13.0 0.00 0.25 0.13 65 1011.6
20260510173445 54 94 8.0 13.0 0.00 0.25 0.13 67 1011.5
20260510172945 53 101 8.0 15.0 0.00 0.25 0.13 68 1011.5
20260510172445 53 127 10.0 15.0 0.00 0.25 0.13 69 1011.6
20260510171945 54 135 12.0 21.0 0.00 0.25 0.13 69 1011.5
20260510171445 55 122 12.0 23.0 0.00 0.25 0.13 65 1011.6
20260510170945 56 98 14.0 19.0 0.00 0.25 0.13 62 1011.4
20260510170445 57 94 13.0 19.0 0.00 0.25 0.13 59 1011.2
20260510165945 57 94 10.0 19.0 0.00 0.25 0.13 60 1011.2
20260510165445 56 112 7.0 14.0 0.00 0.25 0.13 66 1011.2
20260510164945 55 101 8.0 12.0 0.00 0.25 0.13 67 1011.2
20260510164445 55 90 9.0 15.0 0.00 0.25 0.13 66 1011.2
20260510163945 54 102 11.0 17.0 0.00 0.25 0.13 67 1011.3
20260510163445 54 96 14.0 17.0 0.00 0.25 0.13 66 1011.3
20260510162945 54 96 16.0 23.0 0.00 0.25 0.13 66 1011.3
20260510162445 55 96 18.0 25.0 0.00 0.25 0.13 64 1011.3
20260510161945 55 104 18.0 25.0 0.02 0.25 0.13 68 1011.2
20260510161445 55 103 16.0 31.0 0.07 0.25 0.13 69 1011.2
20260510160945 55 119 12.0 22.0 0.07 0.25 0.13 67 1011.0
20260510160445 55 112 9.0 17.0 0.07 0.25 0.13 67 1011.0
20260510155945 55 108 7.0 12.0 0.07 0.25 0.13 70 1011.0
20260510155445 54 155 7.0 11.0 0.07 0.25 0.13 71 1011.1
20260510154945 53 113 8.0 15.0 0.07 0.25 0.13 73 1011.2
20260510154445 52 113 6.0 16.0 0.07 0.25 0.13 73 1011.2
20260510153945 50 133 5.0 10.0 0.07 0.25 0.13 74 1011.2
20260510153445 49 132 8.0 10.0 0.07 0.25 0.13 74 1011.3
20260510152945 49 150 12.0 17.0 0.07 0.25 0.13 74 1011.3
20260510152445 49 110 15.0 20.0 0.07 0.25 0.13 75 1011.2
20260510151945 51 126 13.0 26.0 0.05 0.23 0.11 71 1011.3
20260510151445 56 132 9.0 16.0 0.00 0.18 0.06 66 1011.1
20260510150945 56 107 8.0 14.0 0.00 0.18 0.06 65 1010.6
20260510150445 56 56 7.0 12.0 0.00 0.18 0.06 64 1010.5
20260510145945 56 124 7.0 12.0 0.00 0.18 0.06 66 1010.6
20260510145445 55 139 7.0 10.0 0.00 0.18 0.06 66 1010.8
20260510144945 55 124 7.0 12.0 0.00 0.18 0.06 67 1010.9
20260510144445 54 128 7.0 12.0 0.00 0.18 0.06 67 1011.1
20260510143945 55 139 8.0 12.0 0.00 0.18 0.06 66 1011.1
20260510143445 54 161 11.0 14.0 0.00 0.18 0.06 68 1011.2
20260510142945 55 133 14.0 24.0 0.00 0.18 0.06 67 1011.2
20260510142445 57 108 13.0 24.0 0.00 0.18 0.06 61 1011.1
20260510141945 57 107 10.0 25.0 0.00 0.18 0.06 60 1011.1
20260510141445 57 58 11.0 15.0 0.00 0.18 0.06 66 1011.1
20260510140945 56 72 12.0 20.0 0.00 0.18 0.06 63 1011.2
20260510140445 56 54 11.0 20.0 0.00 0.18 0.06 64 1011.2
20260510135945 56 44 10.0 18.0 0.00 0.18 0.06 63 1011.1
20260510135445 56 67 10.0 16.0 0.00 0.18 0.06 65 1011.0
20260510134945 56 60 10.0 19.0 0.00 0.18 0.06 66 1011.2
20260510134446 56 61 9.0 20.0 0.00 0.18 0.06 66 1011.1
20260510133945 55 69 9.0 15.0 0.00 0.18 0.06 68 1011.1
20260510133446 55 39 8.0 15.0 0.00 0.18 0.06 68 1011.2
20260510132946 55 342 8.0 17.0 0.00 0.18 0.06 68 1011.2
20260510132446 55 0 10.0 13.0 0.00 0.18 0.06 68 1011.1
20260510131946 55 41 11.0 18.0 0.00 0.18 0.06 67 1011.1
20260510131446 55 41 11.0 16.0 0.00 0.18 0.06 69 1011.2
20260510130946 55 65 11.0 19.0 0.00 0.18 0.06 68 1011.3
20260510130446 55 52 9.0 17.0 0.00 0.18 0.06 68 1011.4
20260510125946 55 69 10.0 13.0 0.00 0.18 0.06 69 1011.4
20260510125446 55 72 12.0 19.0 0.00 0.18 0.06 70 1011.6
20260510124946 54 76 13.0 21.0 0.00 0.18 0.06 68 1011.6
20260510124446 54 50 13.0 20.0 0.00 0.18 0.06 67 1011.6
20260510123946 54 76 12.0 21.0 0.00 0.18 0.06 67 1011.8
20260510123446 54 58 10.0 18.0 0.01 0.18 0.06 71 1011.8
20260510122946 53 75 12.0 17.0 0.01 0.18 0.06 71 1011.9
20260510122446 53 53 13.0 20.0 0.01 0.18 0.06 70 1012.0
20260510121946 53 54 13.0 21.0 0.01 0.18 0.06 72 1012.0
20260510121446 52 88 12.0 18.0 0.01 0.18 0.06 73 1011.9
20260510120946 52 44 11.0 18.0 0.01 0.18 0.06 72 1011.8
20260510120446 53 51 11.0 18.0 0.01 0.18 0.06 72 1011.6
20260510115946 53 75 11.0 18.0 0.01 0.18 0.06 72 1011.7
20260510115446 53 49 11.0 17.0 0.01 0.18 0.06 72 1011.8
20260510114946 53 65 12.0 19.0 0.01 0.18 0.06 73 1011.9
20260510114446 53 77 11.0 18.0 0.01 0.18 0.06 73 1012.1
20260510113946 53 53 9.0 16.0 0.01 0.18 0.06 75 1011.9
20260510113446 52 41 8.0 14.0 0.00 0.17 0.05 75 1011.9
20260510112946 52 49 6.0 14.0 0.00 0.17 0.05 75 1011.9
20260510112446 51 27 4.0 14.0 0.00 0.17 0.05 74 1011.9
20260510111946 50 60 4.0 10.0 0.00 0.17 0.05 75 1011.9
20260510111446 49 48 2.0 7.0 0.00 0.17 0.05 72 1011.9
20260510110946 49 4 2.0 5.0 0.00 0.17 0.05 71 1011.9
20260510110446 48 352 2.0 7.0 0.00 0.17 0.05 70 1012.1
20260510105946 47 70 2.0 6.0 0.00 0.17 0.05 70 1012.0
20260510105446 47 70 3.0 6.0 0.00 0.17 0.05 69 1012.1
20260510104946 47 304 5.0 12.0 0.00 0.17 0.05 69 1012.3
20260510104446 47 89 7.0 11.0 0.00 0.17 0.05 68 1012.8
20260510103946 47 43 7.0 12.0 0.00 0.17 0.05 67 1012.9
20260510103446 47 89 9.0 12.0 0.00 0.17 0.05 67 1012.9
20260510102946 46 105 11.0 17.0 0.00 0.17 0.05 65 1013.0
20260510102446 46 79 13.0 21.0 0.00 0.17 0.05 63 1013.0
20260510101946 46 96 13.0 19.0 0.00 0.17 0.05 61 1013.1
20260510101446 46 113 13.0 18.0 0.00 0.17 0.05 61 1013.0
20260510100946 46 91 15.0 22.0 0.02 0.17 0.05 62 1012.8
20260510100446 46 105 17.0 22.0 0.02 0.17 0.05 63 1012.6
20260510095946 46 98 15.0 26.0 0.02 0.17 0.05 63 1012.7
20260510095446 47 110 10.0 25.0 0.02 0.17 0.05 62 1012.6
20260510094946 47 94 9.0 18.0 0.02 0.17 0.05 62 1012.5
20260510094446 47 106 7.0 13.0 0.02 0.17 0.05 63 1012.1
20260510093946 48 77 6.0 13.0 0.03 0.17 0.05 64 1011.9
20260510093446 48 160 7.0 13.0 0.03 0.17 0.05 64 1011.6
20260510092946 48 129 7.0 11.0 0.03 0.17 0.05 64 1011.6
20260510092446 48 116 8.0 11.0 0.03 0.17 0.05 67 1011.5
20260510091946 49 124 7.0 13.0 0.03 0.17 0.05 70 1011.4
20260510091446 50 120 7.0 12.0 0.03 0.17 0.05 72 1011.6
20260510090946 51 129 5.0 11.0 0.01 0.15 0.03 74 1011.4
20260510090446 51 96 4.0 7.0 0.01 0.15 0.03 74 1011.4
20260510085946 51 72 4.0 8.0 0.01 0.15 0.03 75 1011.5
20260510085446 51 75 3.0 9.0 0.01 0.15 0.03 74 1011.4
20260510084946 51 54 2.0 5.0 0.01 0.15 0.03 73 1011.4
20260510084446 51 56 2.0 5.0 0.01 0.15 0.03 74 1011.4
20260510083946 51 342 3.0 6.0 0.00 0.14 0.02 74 1011.5
20260510083446 51 352 3.0 6.0 0.00 0.14 0.02 74 1011.4
20260510082947 51 341 2.0 8.0 0.01 0.14 0.02 74 1011.4
20260510082447 51 0 3.0 5.0 0.01 0.14 0.02 74 1011.3
20260510081947 51 323 3.0 7.0 0.01 0.14 0.02 74 1011.3
20260510081447 51 345 3.0 7.0 0.01 0.14 0.02 74 1011.3
20260510080947 51 300 3.0 8.0 0.01 0.14 0.02 73 1011.1
20260510080447 51 316 4.0 8.0 0.01 0.14 0.02 73 1011.3
20260510075947 51 322 4.0 9.0 0.01 0.14 0.02 72 1011.5
20260510075447 51 354 2.0 8.0 0.01 0.14 0.02 69 1011.5
20260510074947 51 316 1.0 4.0 0.01 0.14 0.02 66 1011.4
20260510074447 51 293 1.0 3.0 0.01 0.14 0.02 65 1011.4
20260510073947 50 25 1.0 5.0 0.01 0.14 0.02 64 1011.4
20260510073447 50 53 1.0 5.0 0.01 0.14 0.02 64 1011.5
20260510072947 49 330 1.0 3.0 0.00 0.13 0.01 64 1011.5
20260510072447 49 330 1.0 5.0 0.00 0.13 0.01 65 1011.5
20260510071947 49 351 1.0 4.0 0.00 0.15 0.01 65 1011.6
20260510071447 49 25 0.0 4.0 0.00 0.15 0.01 65 1011.5
20260510070947 49 77 0.0 1.0 0.00 0.15 0.01 64 1011.5
20260510070447 49 51 0.0 3.0 0.00 0.15 0.01 63 1011.5
20260510065947 49 352 0.0 1.0 0.00 0.15 0.01 62 1011.5
20260510065447 49 348 0.0 1.0 0.00 0.15 0.01 61 1011.4
20260510064947 48 350 1.0 2.0 0.00 0.15 0.01 61 1011.3
20260510064447 48 320 1.0 2.0 0.00 0.15 0.01 61 1011.3
20260510063947 48 330 1.0 3.0 0.00 0.15 0.01 61 1011.4
20260510063447 48 302 2.0 5.0 0.00 0.15 0.01 62 1011.4
20260510062947 48 301 2.0 7.0 0.00 0.15 0.01 62 1011.5
20260510062447 48 309 2.0 5.0 0.00 0.15 0.01 62 1011.4
20260510061947 48 302 1.0 4.0 0.00 0.15 0.01 61 1011.3
20260510061447 48 308 2.0 3.0 0.00 0.15 0.01 59 1011.3
20260510060947 48 346 3.0 7.0 0.00 0.15 0.01 58 1011.4
20260510060447 47 347 2.0 4.0 0.00 0.15 0.01 57 1011.4
20260510055947 47 317 2.0 5.0 0.00 0.15 0.01 57 1011.3
20260510055447 47 332 1.0 4.0 0.00 0.15 0.01 56 1011.3
20260510054947 47 328 1.0 4.0 0.00 0.15 0.01 55 1011.3
20260510054447 47 295 1.0 2.0 0.00 0.15 0.01 55 1011.4
20260510053947 47 319 1.0 2.0 0.00 0.15 0.01 55 1011.3
20260510053447 47 353 1.0 3.0 0.00 0.15 0.01 56 1011.4
20260510052947 46 328 0.0 2.0 0.00 0.15 0.01 57 1011.3
20260510052447 46 305 0.0 1.0 0.00 0.15 0.01 57 1011.3
20260510051947 46 272 0.0 1.0 0.00 0.15 0.01 58 1011.3
20260510051447 46 272 0.0 1.0 0.00 0.15 0.01 58 1011.3
20260510050947 47 274 0.0 3.0 0.00 0.15 0.01 57 1011.3
20260510050447 47 345 0.0 1.0 0.00 0.15 0.01 57 1011.3
20260510045947 47 354 0.0 1.0 0.00 0.15 0.01 58 1011.3
20260510045447 47 319 1.0 3.0 0.00 0.15 0.01 58 1011.3
20260510044947 47 81 1.0 3.0 0.00 0.15 0.01 58 1011.3
20260510044447 47 77 1.0 4.0 0.00 0.15 0.01 58 1011.4
20260510043947 46 15 2.0 3.0 0.00 0.15 0.01 58 1011.3
20260510043447 46 53 2.0 4.0 0.00 0.15 0.01 58 1011.4
20260510042947 46 71 2.0 6.0 0.00 0.15 0.01 58 1011.3
20260510042447 46 47 2.0 6.0 0.00 0.15 0.01 58 1011.3
20260510041947 46 351 2.0 5.0 0.00 0.19 0.01 58 1011.4
20260510041447 47 47 2.0 5.0 0.00 0.19 0.01 58 1011.4
20260510040947 47 74 2.0 5.0 0.00 0.19 0.01 58 1011.4
20260510040447 47 13 2.0 6.0 0.00 0.19 0.01 58 1011.4
20260510035947 47 49 3.0 6.0 0.00 0.19 0.01 58 1011.5
20260510035447 47 1 2.0 5.0 0.00 0.19 0.01 58 1011.5
20260510034947 47 8 2.0 5.0 0.00 0.19 0.01 58 1011.4
20260510034448 47 6 3.0 6.0 0.00 0.19 0.01 58 1011.6
20260510033948 47 48 3.0 7.0 0.00 0.19 0.01 58 1011.6
20260510033447 47 51 2.0 7.0 0.00 0.19 0.01 59 1011.6
20260510032948 47 356 3.0 5.0 0.00 0.19 0.01 58 1011.6
20260510032448 47 56 3.0 8.0 0.00 0.19 0.01 58 1011.7
20260510031948 47 77 3.0 7.0 0.00 0.20 0.01 58 1011.7
20260510031448 47 51 4.0 7.0 0.00 0.20 0.01 58 1011.7
20260510030948 47 22 4.0 9.0 0.00 0.20 0.01 58 1011.7
20260510030448 47 29 4.0 9.0 0.00 0.20 0.01 57 1011.7
20260510025948 47 25 4.0 11.0 0.00 0.20 0.01 57 1011.7
20260510025448 47 9 4.0 9.0 0.00 0.20 0.01 57 1011.7
20260510024948 47 37 4.0 10.0 0.00 0.20 0.01 56 1011.8
20260510024448 47 60 3.0 9.0 0.00 0.20 0.01 56 1011.7
20260510023948 47 14 3.0 7.0 0.00 0.20 0.01 56 1011.7
20260510023448 47 338 2.0 7.0 0.00 0.20 0.01 56 1011.7
20260510022948 47 325 1.0 5.0 0.00 0.20 0.01 56 1011.7
20260510022448 47 30 1.0 4.0 0.00 0.20 0.01 57 1011.7
20260510021948 47 338 1.0 4.0 0.00 0.20 0.01 56 1011.7
20260510021448 47 4 2.0 5.0 0.00 0.20 0.01 56 1011.6
20260510020948 47 341 3.0 7.0 0.00 0.20 0.01 56 1011.7
20260510020448 47 356 3.0 6.0 0.00 0.20 0.01 55 1011.7
20260510015948 47 340 3.0 9.0 0.00 0.20 0.01 55 1011.7
20260510015448 47 16 2.0 8.0 0.00 0.20 0.01 55 1011.7
20260510014948 47 333 1.0 8.0 0.00 0.20 0.01 56 1011.7
20260510014448 47 64 0.0 1.0 0.00 0.20 0.01 56 1011.8
20260510013948 47 242 0.0 2.0 0.00 0.20 0.01 56 1011.8
20260510013448 47 293 0.0 1.0 0.00 0.20 0.01 57 1011.8
20260510012948 47 283 0.0 2.0 0.00 0.20 0.01 57 1011.8
20260510012448 47 342 0.0 1.0 0.00 0.20 0.01 57 1011.9
20260510011948 47 338 1.0 2.0 0.00 0.20 0.01 57 1011.9
20260510011448 47 348 1.0 3.0 0.00 0.20 0.01 57 1011.9
20260510010948 48 300 0.0 1.0 0.00 0.20 0.01 57 1011.9
20260510010448 48 336 0.0 4.0 0.00 0.20 0.01 57 1012.0
20260510005948 48 321 1.0 2.0 0.00 0.20 0.01 57 1012.0
20260510005448 48 334 1.0 2.0 0.00 0.20 0.01 57 1012.1
20260510004948 48 352 1.0 4.0 0.00 0.20 0.01 57 1012.1
20260510004448 48 328 1.0 4.0 0.00 0.20 0.01 57 1012.0
20260510003948 48 325 1.0 3.0 0.00 0.20 0.01 57 1012.2
20260510003448 48 320 0.0 2.0 0.00 0.20 0.01 57 1012.0
20260510002948 48 349 0.0 2.0 0.00 0.20 0.01 57 1012.1
20260510002448 48 340 1.0 3.0 0.00 0.20 0.01 56 1012.0
20260510001948 48 340 1.0 3.0 0.00 0.20 0.01 56 1011.9
20260510001448 48 338 2.0 4.0 0.00 0.20 0.01 55 1011.9
20260510000948 48 314 1.0 4.0 0.00 0.20 0.01 55 1011.9
20260510000448 48 342 1.0 3.0 0.00 0.20 0.01 55 1012.3
20260509235948 48 323 1.0 2.0 0.00 0.20 0.01 54 1012.3
20260509235448 48 345 1.0 4.0 0.00 0.20 0.01 54 1012.3
20260509234948 48 353 1.0 2.0 0.00 0.20 0.01 54 1012.3
20260509234448 48 334 1.0 3.0 0.00 0.20 0.01 54 1012.2
20260509233948 48 321 1.0 3.0 0.00 0.20 0.01 54 1012.1
20260509233448 48 344 1.0 2.0 0.00 0.20 0.01 54 1012.4
20260509232948 48 346 2.0 2.0 0.00 0.20 0.01 54 1012.4
20260509232448 48 58 3.0 5.0 0.00 0.20 0.01 55 1012.4
20260509231948 48 66 2.0 6.0 0.00 0.20 0.01 55 1012.4
20260509231448 48 58 0.0 4.0 0.00 0.20 0.01 55 1012.2
20260509230948 48 35 0.0 1.0 0.00 0.20 0.01 55 1011.9
20260509230448 48 68 0.0 1.0 0.00 0.20 0.01 56 1011.7
20260509225948 48 68 0.0 1.0 0.01 0.20 0.01 56 1011.7
20260509225448 48 53 0.0 1.0 0.01 0.20 0.01 56 1011.7
20260509224948 48 70 0.0 1.0 0.03 0.20 0.01 57 1011.6
20260509224448 48 85 0.0 2.0 0.07 0.20 0.01 57 1011.7
20260509223948 48 72 0.0 1.0 0.08 0.20 0.01 57 1011.6